Weather History for Athens, GA

Change the Weather History Date:

Thursday, February 7, 2013

  Actual Average Record
Temperature  
Mean Temperature 44 °F 46 °F  
Max Temperature 47 °F 57 °F 76 °F (1925)
Min Temperature 41 °F 35 °F 15 °F (1978)
Degree Days  
Heating Degree Days 21 19  
Month to date heating degree days 151 139  
Since 1 July heating degree days 1620 1896  
Moisture  
Dew Point 39 °F    
Average Humidity 77    
Maximum Humidity 100    
Minimum Humidity 53    
Precipitation  
Precipitation 0.79 in 0.15 in 2.55 in (1873)
Month to date precipitation 0.89 1.09  
Year to date precipitation 5.86 5.14  
Snow  
Snow 0.00 in 0.00 in 0.00 in (2002)
Month to date snowfall 0.0 0.2  
Since 1 July snowfall 0.0 1.7  
Snow Depth -    
Sea Level Pressure  
Sea Level Pressure 30.07 in    
Wind  
Wind Speed 11 mph (ENE)    
Max Wind Speed 21 mph    
Max Gust Speed 26 mph    
Visibility 5 miles    
Events Rain    
T = Trace of Precipitation, MM = Missing Value Source: NWS Daily Summary

Daily Weather History Graph

Daily Weather History Graph

Search for Another Location

Airport:

Trip Planner

Search our weather history database for the weather conditions in past years. The results will help you decide how hot, cold, wet, or windy it might be!

Date:

Astronomy

Feb. 07, 2013 Rise Set
Actual Time 7:25 AM EST 6:10 PM EST
Civil Twilight 6:59 AM EST 6:36 PM EST
Nautical Twilight 6:29 AM EST 7:05 PM EST
Astronomical Twilight 6:00 AM EST 7:34 PM EST
Moon 4:59 AM EST (2/7) 3:37 PM EST (2/7)
Length of Visible Light 11h 36m
Length of Day
10h 44m
Waning Crescent, 9% of the Moon is Illuminated
Feb 7
Waning Crescent
Feb 10
New
Feb 17
First Quarter
Feb 25
Full
Mar 4
Last Quarter

Hourly Weather History & Observations

Time (EST) Temp. Windchill Dew Point Humidity Pressure Visibility Wind Dir Wind Speed Gust Speed Precip Events Conditions
12:51 AM 42.1 °F 40.2 °F 30.9 °F 65% 30.14 in 10.0 mi NE 3.5 mph - N/A   Clear
1:51 AM 43.0 °F 38.8 °F 30.9 °F 62% 30.13 in 10.0 mi East 6.9 mph - N/A   Clear
2:51 AM 43.0 °F 40.3 °F 32.0 °F 65% 30.15 in 10.0 mi NE 4.6 mph - N/A   Clear
3:51 AM 46.0 °F 43.9 °F 32.0 °F 58% 30.16 in 10.0 mi NNE 4.6 mph - N/A   Clear
4:51 AM 46.0 °F 41.9 °F 32.0 °F 58% 30.16 in 10.0 mi NE 8.1 mph - N/A   Mostly Cloudy
5:51 AM 46.9 °F - 32.0 °F 56% 30.15 in 10.0 mi ENE 11.5 mph - N/A   Clear
6:51 AM 46.0 °F 40.2 °F 30.9 °F 56% 30.15 in 10.0 mi NE 12.7 mph - N/A   Clear
7:51 AM 46.9 °F - 30.9 °F 54% 30.16 in 10.0 mi ENE 12.7 mph - N/A   Overcast
8:16 AM 46.4 °F 41.5 °F 32.0 °F 57% 30.16 in 10.0 mi ENE 10.4 mph - N/A   Overcast
8:51 AM 45.0 °F 39.3 °F 35.1 °F 68% 30.16 in 6.0 mi ENE 11.5 mph 18.4 mph 0.00 in Rain Light Rain
9:08 AM 44.6 °F 39.7 °F 35.6 °F 71% 30.15 in 2.5 mi ENE 9.2 mph - N/A Rain Light Rain
9:17 AM 44.6 °F 39.2 °F 37.4 °F 76% 30.14 in 5.0 mi ENE 10.4 mph - 0.04 in Rain Light Rain
9:39 AM 44.6 °F 38.1 °F 37.4 °F 76% 30.12 in 9.0 mi NE 13.8 mph - 0.04 in   Overcast
9:51 AM 45.0 °F 38.9 °F 37.0 °F 74% 30.12 in 8.0 mi NE 12.7 mph - 0.04 in   Overcast
10:51 AM 45.0 °F 40.1 °F 37.0 °F 74% 30.14 in 7.0 mi ENE 9.2 mph - 0.00 in Rain Light Rain
10:58 AM 44.6 °F 39.7 °F 37.4 °F 76% 30.13 in 7.0 mi ENE 9.2 mph - 0.01 in Rain Light Rain
11:51 AM 44.1 °F 37.4 °F 39.9 °F 85% 30.12 in 3.0 mi ENE 13.8 mph - 0.04 in Rain Light Rain
12:07 PM 44.6 °F 39.2 °F 41.0 °F 87% 30.11 in 4.0 mi ENE 10.4 mph - 0.01 in Rain Light Rain
12:24 PM 44.6 °F 40.2 °F 41.0 °F 87% 30.11 in 4.0 mi NE 8.1 mph - 0.02 in Rain Light Rain
12:51 PM 44.1 °F 38.1 °F 41.0 °F 89% 30.10 in 4.0 mi ENE 11.5 mph - 0.05 in Rain Light Rain
1:16 PM 44.6 °F 38.8 °F 42.8 °F 93% 30.07 in 2.5 mi ENE 11.5 mph - 0.02 in Rain Light Rain
1:30 PM 44.6 °F 38.4 °F 42.8 °F 93% 30.07 in 3.0 mi ENE 12.7 mph 20.7 mph 0.04 in Rain Light Rain
1:37 PM 44.6 °F 39.2 °F 41.0 °F 87% 30.06 in 3.0 mi ENE 10.4 mph - 0.05 in Rain Light Rain
1:51 PM 44.1 °F 37.7 °F 42.1 °F 93% 30.06 in 3.0 mi ENE 12.7 mph 20.7 mph 0.06 in Rain Light Rain
1:53 PM 44.6 °F 39.2 °F 42.8 °F 93% 30.05 in 2.5 mi ENE 10.4 mph 20.7 mph 0.01 in Rain Light Rain
2:13 PM 44.6 °F 39.2 °F 42.8 °F 93% 30.04 in 1.8 mi ENE 10.4 mph - 0.03 in Rain Light Rain
2:18 PM 44.6 °F 39.2 °F 42.8 °F 93% 30.04 in 2.0 mi East 10.4 mph - 0.04 in Rain Light Rain
2:26 PM 44.6 °F 39.7 °F 42.8 °F 93% 30.05 in 1.8 mi ENE 9.2 mph - 0.06 in Rain Rain
2:35 PM 44.6 °F 39.2 °F 42.8 °F 93% 30.04 in 2.0 mi ENE 10.4 mph - 0.07 in Rain Light Rain
2:51 PM 44.1 °F 38.6 °F 42.1 °F 93% 30.05 in 2.0 mi ENE 10.4 mph - 0.10 in Rain Rain
3:09 PM 44.6 °F 38.4 °F 42.8 °F 93% 30.03 in 1.5 mi ENE 12.7 mph - 0.05 in Rain Rain
3:41 PM 44.6 °F 39.2 °F 42.8 °F 93% 30.00 in 2.0 mi NE 10.4 mph 21.9 mph 0.12 in Rain Light Rain
3:51 PM 44.1 °F 37.4 °F 42.1 °F 93% 30.02 in 2.0 mi ENE 13.8 mph 20.7 mph 0.13 in Rain Light Rain
4:00 PM 44.6 °F 38.1 °F 42.8 °F 93% 30.00 in 1.5 mi ENE 13.8 mph - 0.02 in Rain Rain
4:51 PM 44.1 °F 37.7 °F 42.1 °F 93% 29.99 in 2.0 mi ENE 12.7 mph 20.7 mph 0.11 in Rain Light Rain
5:05 PM 44.6 °F 39.2 °F 42.8 °F 93% 29.97 in 1.8 mi NE 10.4 mph - 0.03 in Rain Rain
5:23 PM 42.8 °F 37.0 °F 42.8 °F 100% 29.96 in 2.0 mi ENE 10.4 mph - 0.07 in Rain Light Rain
5:51 PM 43.0 °F 36.0 °F 42.1 °F 97% 29.96 in 2.0 mi ENE 13.8 mph 20.7 mph 0.14 in Rain Rain
6:10 PM 42.8 °F 34.8 °F 42.8 °F 100% 29.94 in 3.0 mi ENE 17.3 mph 24.2 mph 0.06 in Rain Rain
6:51 PM 43.0 °F 36.0 °F 42.1 °F 97% 29.96 in 5.0 mi ENE 13.8 mph 24.2 mph 0.12 in Rain Light Rain
7:51 PM 44.1 °F 38.1 °F 42.1 °F 93% 29.97 in 5.0 mi NNE 11.5 mph - 0.00 in   Overcast
8:51 PM 45.0 °F 39.3 °F 43.0 °F 93% 29.96 in 5.0 mi NE 11.5 mph - N/A   Overcast
9:51 PM 45.0 °F 39.7 °F 43.0 °F 93% 29.97 in 5.0 mi NE 10.4 mph - N/A   Overcast
10:51 PM 45.0 °F 40.1 °F 43.0 °F 93% 29.97 in 5.0 mi NE 9.2 mph - N/A   Overcast
11:51 PM 45.0 °F 39.3 °F 43.0 °F 93% 29.96 in 5.0 mi NE 11.5 mph - N/A   Overcast